Time,TemperatureF,DewpointF,PressureIn,WindDirection,WindDirectionDegrees,WindSpeedMPH,WindSpeedGustMPH,Humidity,HourlyPrecipIn,Conditions,Clouds,dailyrainin,SoftwareType,DateUTC
2013-03-04 00:00:00,34.6,25.8,29.56,NW,322,11.0,11.0,70,0.00,,,0.00,Wunderground v.1.15,2013-03-04 05:00:00,
2013-03-04 00:01:00,34.5,25.7,29.56,NNW,330,7.0,11.0,70,0.00,,,0.00,Wunderground v.1.15,2013-03-04 05:01:00,
2013-03-04 00:07:00,34.4,25.6,29.56,NNW,330,12.0,12.0,70,0.00,,,0.00,Wunderground v.1.15,2013-03-04 05:07:00,
2013-03-04 00:12:00,34.4,25.6,29.56,SW,233,6.0,10.0,70,0.00,,,0.00,Wunderground v.1.15,2013-03-04 05:12:00,
2013-03-04 00:17:00,34.4,25.6,29.56,NNW,327,2.0,10.0,70,0.00,,,0.00,Wunderground v.1.15,2013-03-04 05:17:00,
2013-03-04 00:22:00,34.4,25.6,29.56,WNW,291,11.0,13.0,70,0.00,,,0.00,Wunderground v.1.15,2013-03-04 05:22:00,
2013-03-04 00:27:00,34.4,25.3,29.56,NW,315,6.0,13.0,69,0.00,,,0.00,Wunderground v.1.15,2013-03-04 05:27:00,
2013-03-04 00:33:00,34.2,25.1,29.56,West,271,6.0,9.0,69,0.00,,,0.00,Wunderground v.1.15,2013-03-04 05:33:00,
2013-03-04 00:38:00,34.1,25.0,29.56,NW,324,8.0,13.0,69,0.00,,,0.00,Wunderground v.1.15,2013-03-04 05:38:00,
2013-03-04 00:43:00,33.9,24.8,29.56,NW,322,7.0,8.0,69,0.00,,,0.00,Wunderground v.1.15,2013-03-04 05:43:00,
2013-03-04 00:48:00,33.8,24.7,29.56,NW,318,5.0,8.0,69,0.00,,,0.00,Wunderground v.1.15,2013-03-04 05:48:00,
2013-03-04 00:53:00,33.7,24.6,29.56,WSW,254,6.0,7.0,69,0.00,,,0.00,Wunderground v.1.15,2013-03-04 05:53:00,
2013-03-04 00:59:00,33.7,24.6,29.56,NNW,332,9.0,9.0,69,0.00,,,0.00,Wunderground v.1.15,2013-03-04 05:59:00,
2013-03-04 01:05:00,33.6,24.5,29.56,WNW,295,10.0,13.0,69,0.00,,,0.00,Wunderground v.1.15,2013-03-04 06:05:00,
2013-03-04 01:11:00,33.6,24.5,29.57,NW,314,5.0,6.0,69,0.00,,,0.00,Wunderground v.1.15,2013-03-04 06:11:00,
2013-03-04 01:16:00,33.7,24.6,29.56,WSW,249,11.0,11.0,69,0.00,,,0.00,Wunderground v.1.15,2013-03-04 06:16:00,
2013-03-04 01:21:00,33.6,24.5,29.56,NW,323,6.0,7.0,69,0.00,,,0.00,Wunderground v.1.15,2013-03-04 06:21:00,
2013-03-04 01:26:00,33.7,24.6,29.57,NNW,348,14.0,14.0,69,0.00,,,0.00,Wunderground v.1.15,2013-03-04 06:26:00,
2013-03-04 01:31:00,33.7,24.6,29.56,NW,304,6.0,8.0,69,0.00,,,0.00,Wunderground v.1.15,2013-03-04 06:31:00,
2013-03-04 01:36:00,33.7,24.6,29.56,WNW,298,12.0,12.0,69,0.00,,,0.00,Wunderground v.1.15,2013-03-04 06:36:00,
2013-03-04 01:41:00,33.7,24.6,29.57,West,272,5.0,6.0,69,0.00,,,0.00,Wunderground v.1.15,2013-03-04 06:41:00,
2013-03-04 01:46:00,33.6,24.5,29.57,NW,317,6.0,8.0,69,0.00,,,0.00,Wunderground v.1.15,2013-03-04 06:46:00,
2013-03-04 01:51:00,33.6,24.5,29.57,NW,317,10.0,10.0,69,0.00,,,0.00,Wunderground v.1.15,2013-03-04 06:51:00,
2013-03-04 01:57:00,33.5,24.1,29.57,NNW,331,4.0,14.0,68,0.00,,,0.00,Wunderground v.1.15,2013-03-04 06:57:00,
2013-03-04 02:02:00,33.5,24.4,29.56,NW,308,4.0,11.0,69,0.00,,,0.00,Wunderground v.1.15,2013-03-04 07:02:00,
2013-03-04 02:07:00,33.5,24.4,29.56,NW,313,4.0,11.0,69,0.00,,,0.00,Wunderground v.1.15,2013-03-04 07:07:00,
2013-03-04 02:12:00,33.5,24.4,29.56,NW,322,10.0,13.0,69,0.00,,,0.00,Wunderground v.1.15,2013-03-04 07:12:00,
2013-03-04 02:17:00,33.4,24.3,29.56,NW,312,6.0,13.0,69,0.00,,,0.00,Wunderground v.1.15,2013-03-04 07:17:00,
2013-03-04 02:22:00,33.4,24.3,29.57,West,279,7.0,12.0,69,0.00,,,0.00,Wunderground v.1.15,2013-03-04 07:22:00,
2013-03-04 02:27:00,33.3,24.2,29.57,WNW,299,9.0,14.0,69,0.00,,,0.00,Wunderground v.1.15,2013-03-04 07:27:00,
2013-03-04 02:32:00,33.2,24.1,29.57,West,272,2.0,10.0,69,0.00,,,0.00,Wunderground v.1.15,2013-03-04 07:32:00,
2013-03-04 02:37:00,33.1,24.0,29.57,NW,310,10.0,12.0,69,0.00,,,0.00,Wunderground v.1.15,2013-03-04 07:37:00,
2013-03-04 02:42:00,33.0,23.9,29.57,NW,319,6.0,13.0,69,0.00,,,0.00,Wunderground v.1.15,2013-03-04 07:42:00,
2013-03-04 02:47:00,32.9,23.8,29.57,NW,309,5.0,16.0,69,0.00,,,0.00,Wunderground v.1.15,2013-03-04 07:47:00,
2013-03-04 02:52:00,32.7,23.6,29.56,West,277,5.0,11.0,69,0.00,,,0.00,Wunderground v.1.15,2013-03-04 07:52:00,
2013-03-04 02:57:00,32.6,23.6,29.56,NW,323,7.0,14.0,69,0.00,,,0.00,Wunderground v.1.15,2013-03-04 07:57:00,
2013-03-04 03:02:00,32.4,23.4,29.56,WNW,284,4.0,13.0,69,0.00,,,0.00,Wunderground v.1.15,2013-03-04 08:02:00,
2013-03-04 03:07:00,32.3,23.3,29.56,NW,313,3.0,13.0,69,0.00,,,0.00,Wunderground v.1.15,2013-03-04 08:07:00,
2013-03-04 03:12:00,32.2,23.5,29.56,NW,315,11.0,14.0,70,0.00,,,0.00,Wunderground v.1.15,2013-03-04 08:12:00,
2013-03-04 03:17:00,32.1,23.4,29.56,NW,309,7.0,14.0,70,0.00,,,0.00,Wunderground v.1.15,2013-03-04 08:17:00,
2013-03-04 03:22:00,32.0,23.3,29.56,NW,311,8.0,10.0,70,0.00,,,0.00,Wunderground v.1.15,2013-03-04 08:22:00,
2013-03-04 03:27:00,31.9,23.2,29.57,NW,304,11.0,12.0,70,0.00,,,0.00,Wunderground v.1.15,2013-03-04 08:27:00,
2013-03-04 03:32:00,31.9,23.2,29.57,NW,319,4.0,13.0,70,0.00,,,0.00,Wunderground v.1.15,2013-03-04 08:32:00,
2013-03-04 03:37:00,31.8,23.1,29.57,WNW,291,4.0,13.0,70,0.00,,,0.00,Wunderground v.1.15,2013-03-04 08:37:00,
2013-03-04 03:42:00,31.7,23.0,29.57,NW,321,4.0,10.0,70,0.00,,,0.00,Wunderground v.1.15,2013-03-04 08:42:00,
2013-03-04 03:47:00,31.7,23.0,29.57,NW,304,4.0,13.0,70,0.00,,,0.00,Wunderground v.1.15,2013-03-04 08:47:00,
2013-03-04 03:52:00,31.6,23.3,29.57,West,267,10.0,10.0,71,0.00,,,0.00,Wunderground v.1.15,2013-03-04 08:52:00,
2013-03-04 03:57:00,31.5,23.2,29.57,NW,321,6.0,11.0,71,0.00,,,0.00,Wunderground v.1.15,2013-03-04 08:57:00,
2013-03-04 04:02:00,31.4,23.1,29.57,WNW,300,10.0,15.0,71,0.00,,,0.00,Wunderground v.1.15,2013-03-04 09:02:00,
2013-03-04 04:07:00,31.4,23.1,29.57,NW,308,6.0,15.0,71,0.00,,,0.00,Wunderground v.1.15,2013-03-04 09:07:00,
2013-03-04 04:12:00,31.3,23.0,29.57,West,273,6.0,11.0,71,0.00,,,0.00,Wunderground v.1.15,2013-03-04 09:12:00,
2013-03-04 04:17:00,31.3,23.0,29.57,NW,307,9.0,11.0,71,0.00,,,0.00,Wunderground v.1.15,2013-03-04 09:17:00,
2013-03-04 04:22:00,31.3,23.0,29.57,WNW,298,7.0,10.0,71,0.00,,,0.00,Wunderground v.1.15,2013-03-04 09:22:00,
2013-03-04 04:27:00,31.2,22.9,29.57,West,280,5.0,12.0,71,0.00,,,0.00,Wunderground v.1.15,2013-03-04 09:27:00,
2013-03-04 04:32:00,31.2,22.9,29.57,WNW,296,9.0,9.0,71,0.00,,,0.00,Wunderground v.1.15,2013-03-04 09:32:00,
2013-03-04 04:37:00,31.2,22.9,29.57,NW,315,7.0,12.0,71,0.00,,,0.00,Wunderground v.1.15,2013-03-04 09:37:00,
2013-03-04 04:42:00,31.2,22.9,29.57,WNW,288,12.0,12.0,71,0.00,,,0.00,Wunderground v.1.15,2013-03-04 09:42:00,
2013-03-04 04:47:00,31.2,22.9,29.58,WNW,286,6.0,12.0,71,0.00,,,0.00,Wunderground v.1.15,2013-03-04 09:47:00,
2013-03-04 04:52:00,31.1,22.8,29.58,NNW,342,15.0,15.0,71,0.00,,,0.00,Wunderground v.1.15,2013-03-04 09:52:00,
2013-03-04 04:57:00,31.0,22.7,29.58,West,277,5.0,15.0,71,0.00,,,0.00,Wunderground v.1.15,2013-03-04 09:57:00,
2013-03-04 05:02:00,31.0,22.7,29.58,West,275,4.0,10.0,71,0.00,,,0.00,Wunderground v.1.15,2013-03-04 10:02:00,
2013-03-04 05:07:00,31.0,22.7,29.58,West,264,6.0,10.0,71,0.00,,,0.00,Wunderground v.1.15,2013-03-04 10:07:00,
2013-03-04 05:12:00,31.0,22.7,29.58,WNW,287,8.0,8.0,71,0.00,,,0.00,Wunderground v.1.15,2013-03-04 10:12:00,
2013-03-04 05:17:00,30.9,22.6,29.58,WNW,296,5.0,11.0,71,0.00,,,0.00,Wunderground v.1.15,2013-03-04 10:17:00,
2013-03-04 05:22:00,30.8,22.5,29.58,WNW,303,4.0,13.0,71,0.00,,,0.00,Wunderground v.1.15,2013-03-04 10:22:00,
2013-03-04 05:27:00,30.7,22.4,29.58,West,275,9.0,13.0,71,0.00,,,0.00,Wunderground v.1.15,2013-03-04 10:27:00,
2013-03-04 05:32:00,30.7,22.4,29.58,West,279,6.0,7.0,71,0.00,,,0.00,Wunderground v.1.15,2013-03-04 10:32:00,
2013-03-04 05:37:00,30.6,22.3,29.58,WNW,292,5.0,12.0,71,0.00,,,0.00,Wunderground v.1.15,2013-03-04 10:37:00,
2013-03-04 05:42:00,30.6,22.3,29.58,WNW,290,3.0,9.0,71,0.00,,,0.00,Wunderground v.1.15,2013-03-04 10:42:00,
2013-03-04 05:47:00,30.6,22.3,29.58,WNW,290,9.0,10.0,71,0.00,,,0.00,Wunderground v.1.15,2013-03-04 10:47:00,
2013-03-04 05:52:00,30.5,21.9,29.58,WNW,282,13.0,14.0,70,0.00,,,0.00,Wunderground v.1.15,2013-03-04 10:52:00,
2013-03-04 05:57:00,30.5,21.9,29.58,WNW,296,8.0,17.0,70,0.00,,,0.00,Wunderground v.1.15,2013-03-04 10:57:00,
2013-03-04 06:02:00,30.5,21.9,29.58,WNW,292,6.0,11.0,70,0.00,,,0.00,Wunderground v.1.15,2013-03-04 11:02:00,
2013-03-04 06:07:00,30.4,21.8,29.58,WNW,291,9.0,11.0,70,0.00,,,0.00,Wunderground v.1.15,2013-03-04 11:07:00,
2013-03-04 06:12:00,30.3,21.7,29.58,NW,312,6.0,12.0,70,0.00,,,0.00,Wunderground v.1.15,2013-03-04 11:12:00,
2013-03-04 06:17:00,30.3,21.7,29.58,West,278,6.0,12.0,70,0.00,,,0.00,Wunderground v.1.15,2013-03-04 11:17:00,
2013-03-04 06:22:00,30.2,21.6,29.58,SW,232,4.0,10.0,70,0.00,,,0.00,Wunderground v.1.15,2013-03-04 11:22:00,
2013-03-04 06:27:00,30.1,21.5,29.58,West,276,5.0,10.0,70,0.00,,,0.00,Wunderground v.1.15,2013-03-04 11:27:00,
2013-03-04 06:32:00,30.1,21.5,29.58,NW,319,5.0,8.0,70,0.00,,,0.00,Wunderground v.1.15,2013-03-04 11:32:00,
2013-03-04 06:37:00,30.0,21.4,29.59,West,279,4.0,10.0,70,0.00,,,0.00,Wunderground v.1.15,2013-03-04 11:37:00,
2013-03-04 06:42:00,30.0,21.1,29.59,West,279,8.0,8.0,69,0.00,,,0.00,Wunderground v.1.15,2013-03-04 11:42:00,
2013-03-04 06:47:00,30.0,21.1,29.59,West,261,2.0,12.0,69,0.00,,,0.00,Wunderground v.1.15,2013-03-04 11:47:00,
2013-03-04 06:52:00,30.0,21.1,29.59,West,275,6.0,16.0,69,0.00,,,0.00,Wunderground v.1.15,2013-03-04 11:52:00,
2013-03-04 06:57:00,30.2,20.9,29.59,NW,323,8.0,17.0,68,0.00,,,0.00,Wunderground v.1.15,2013-03-04 11:57:00,
2013-03-04 07:02:00,30.2,20.9,29.59,WSW,250,14.0,14.0,68,0.00,,,0.00,Wunderground v.1.15,2013-03-04 12:02:00,
2013-03-04 07:07:00,30.2,20.9,29.59,NW,325,9.0,18.0,68,0.00,,,0.00,Wunderground v.1.15,2013-03-04 12:07:00,
2013-03-04 07:12:00,30.4,21.1,29.59,West,264,13.0,15.0,68,0.00,,,0.00,Wunderground v.1.15,2013-03-04 12:12:00,
2013-03-04 07:17:00,30.5,20.8,29.59,NNW,334,10.0,18.0,67,0.00,,,0.00,Wunderground v.1.15,2013-03-04 12:17:00,
2013-03-04 07:22:00,30.7,21.0,29.59,West,281,11.0,13.0,67,0.00,,,0.00,Wunderground v.1.15,2013-03-04 12:22:00,
2013-03-04 07:27:00,30.9,20.9,29.59,WNW,296,17.0,17.0,66,0.00,,,0.00,Wunderground v.1.15,2013-03-04 12:27:00,
2013-03-04 07:32:00,31.0,21.0,29.59,West,278,9.0,14.0,66,0.00,,,0.00,Wunderground v.1.15,2013-03-04 12:32:00,
2013-03-04 07:37:00,31.2,21.2,29.59,WNW,303,15.0,16.0,66,0.00,,,0.00,Wunderground v.1.15,2013-03-04 12:37:00,
2013-03-04 07:42:00,31.3,20.9,29.60,NNE,17,11.0,19.0,65,0.00,,,0.00,Wunderground v.1.15,2013-03-04 12:42:00,
2013-03-04 07:47:00,31.5,21.1,29.59,WNW,298,6.0,23.0,65,0.00,,,0.00,Wunderground v.1.15,2013-03-04 12:47:00,
2013-03-04 07:52:00,31.7,21.3,29.59,NNW,342,9.0,16.0,65,0.00,,,0.00,Wunderground v.1.15,2013-03-04 12:52:00,
2013-03-04 07:58:00,31.8,21.0,29.59,West,266,9.0,16.0,64,0.00,,,0.00,Wunderground v.1.15,2013-03-04 12:58:00,
2013-03-04 08:03:00,31.9,21.1,29.59,WNW,296,7.0,19.0,64,0.00,,,0.00,Wunderground v.1.15,2013-03-04 13:03:00,
2013-03-04 08:08:00,32.0,21.2,29.59,NNW,331,8.0,19.0,64,0.00,,,0.00,Wunderground v.1.15,2013-03-04 13:08:00,
2013-03-04 08:13:00,32.1,21.3,29.59,NW,322,9.0,24.0,64,0.00,,,0.00,Wunderground v.1.15,2013-03-04 13:13:00,
2013-03-04 08:18:00,32.2,21.0,29.59,NW,322,14.0,24.0,63,0.00,,,0.00,Wunderground v.1.15,2013-03-04 13:18:00,
2013-03-04 08:23:00,32.4,21.6,29.59,NW,319,7.0,13.0,64,0.00,,,0.00,Wunderground v.1.15,2013-03-04 13:23:00,
2013-03-04 08:28:00,32.6,21.4,29.59,NNW,346,12.0,18.0,63,0.00,,,0.00,Wunderground v.1.15,2013-03-04 13:28:00,
2013-03-04 08:33:00,32.7,21.5,29.59,NW,320,1.0,14.0,63,0.00,,,0.00,Wunderground v.1.15,2013-03-04 13:33:00,
2013-03-04 08:38:00,33.0,21.4,29.59,NW,319,14.0,22.0,62,0.00,,,0.00,Wunderground v.1.15,2013-03-04 13:38:00,
2013-03-04 08:43:00,33.2,21.6,29.59,WNW,290,17.0,17.0,62,0.00,,,0.00,Wunderground v.1.15,2013-03-04 13:43:00,
2013-03-04 08:48:00,33.3,21.7,29.58,WNW,300,2.0,20.0,62,0.00,,,0.00,Wunderground v.1.15,2013-03-04 13:48:00,
2013-03-04 08:53:00,33.7,22.1,29.58,NNW,327,7.0,20.0,62,0.00,,,0.00,Wunderground v.1.15,2013-03-04 13:53:00,
2013-03-04 08:58:00,34.0,22.3,29.58,NW,326,7.0,20.0,62,0.00,,,0.00,Wunderground v.1.15,2013-03-04 13:58:00,
2013-03-04 09:03:00,34.4,21.9,29.58,NW,315,12.0,21.0,60,0.00,,,0.00,Wunderground v.1.15,2013-03-04 14:03:00,
2013-03-04 09:08:00,34.4,22.3,29.58,West,265,7.0,23.0,61,0.00,,,0.00,Wunderground v.1.15,2013-03-04 14:08:00,
2013-03-04 09:13:00,34.7,22.2,29.58,WNW,291,9.0,15.0,60,0.00,,,0.00,Wunderground v.1.15,2013-03-04 14:13:00,
2013-03-04 09:18:00,34.9,22.0,29.58,WNW,294,10.0,21.0,59,0.00,,,0.00,Wunderground v.1.15,2013-03-04 14:18:00,
2013-03-04 09:23:00,35.1,22.6,29.57,NW,304,8.0,18.0,60,0.00,,,0.00,Wunderground v.1.15,2013-03-04 14:23:00,
2013-03-04 09:28:00,35.4,22.5,29.57,WNW,290,10.0,18.0,59,0.00,,,0.00,Wunderground v.1.15,2013-03-04 14:28:00,
2013-03-04 09:33:00,35.6,22.3,29.57,WNW,288,14.0,15.0,58,0.00,,,0.00,Wunderground v.1.15,2013-03-04 14:33:00,
2013-03-04 09:38:00,35.7,22.4,29.57,WNW,300,12.0,15.0,58,0.00,,,0.00,Wunderground v.1.15,2013-03-04 14:38:00,
2013-03-04 09:43:00,35.9,22.1,29.57,WNW,284,16.0,17.0,57,0.00,,,0.00,Wunderground v.1.15,2013-03-04 14:43:00,
2013-03-04 09:48:00,36.2,22.8,29.57,West,275,13.0,22.0,58,0.00,,,0.00,Wunderground v.1.15,2013-03-04 14:48:00,
2013-03-04 09:53:00,36.5,23.1,29.57,West,275,13.0,15.0,58,0.00,,,0.00,Wunderground v.1.15,2013-03-04 14:53:00,
2013-03-04 09:58:00,36.9,23.1,29.58,NNW,340,16.0,18.0,57,0.00,,,0.00,Wunderground v.1.15,2013-03-04 14:58:00,
2013-03-04 10:03:00,37.1,22.8,29.58,NW,319,13.0,25.0,56,0.00,,,0.00,Wunderground v.1.15,2013-03-04 15:03:00,
2013-03-04 10:08:00,36.9,22.7,29.57,WNW,301,15.0,25.0,56,0.00,,,0.00,Wunderground v.1.15,2013-03-04 15:08:00,
2013-03-04 10:13:00,36.9,22.7,29.57,WNW,299,18.0,19.0,56,0.00,,,0.00,Wunderground v.1.15,2013-03-04 15:13:00,
2013-03-04 10:18:00,36.8,22.6,29.57,NW,322,12.0,19.0,56,0.00,,,0.00,Wunderground v.1.15,2013-03-04 15:18:00,
2013-03-04 10:23:00,36.9,22.7,29.57,West,275,8.0,14.0,56,0.00,,,0.00,Wunderground v.1.15,2013-03-04 15:23:00,
2013-03-04 10:28:00,37.2,22.9,29.57,NNW,333,12.0,17.0,56,0.00,,,0.00,Wunderground v.1.15,2013-03-04 15:28:00,
2013-03-04 10:33:00,37.5,22.8,29.57,NW,323,22.0,22.0,55,0.00,,,0.00,Wunderground v.1.15,2013-03-04 15:33:00,
2013-03-04 10:38:00,37.5,22.8,29.56,NW,304,11.0,26.0,55,0.00,,,0.00,Wunderground v.1.15,2013-03-04 15:38:00,
2013-03-04 10:43:00,37.7,23.0,29.56,WNW,283,12.0,17.0,55,0.00,,,0.00,Wunderground v.1.15,2013-03-04 15:43:00,
2013-03-04 10:48:00,37.9,23.6,29.56,West,279,10.0,21.0,56,0.00,,,0.00,Wunderground v.1.15,2013-03-04 15:48:00,
2013-03-04 10:53:00,38.1,22.9,29.56,NW,304,8.0,20.0,54,0.00,,,0.00,Wunderground v.1.15,2013-03-04 15:53:00,
2013-03-04 10:58:00,38.0,22.8,29.56,NW,321,17.0,23.0,54,0.00,,,0.00,Wunderground v.1.15,2013-03-04 15:58:00,
2013-03-04 11:03:00,37.8,22.6,29.56,NNW,329,14.0,20.0,54,0.00,,,0.00,Wunderground v.1.15,2013-03-04 16:03:00,
2013-03-04 11:08:00,37.9,22.7,29.56,NW,305,7.0,20.0,54,0.00,,,0.00,Wunderground v.1.15,2013-03-04 16:08:00,
2013-03-04 11:13:00,38.1,22.9,29.56,NW,326,9.0,16.0,54,0.00,,,0.00,Wunderground v.1.15,2013-03-04 16:13:00,
2013-03-04 11:18:00,38.3,23.1,29.57,NNW,330,9.0,20.0,54,0.00,,,0.00,Wunderground v.1.15,2013-03-04 16:18:00,
2013-03-04 11:23:00,38.7,23.5,29.56,NNW,338,8.0,16.0,54,0.00,,,0.00,Wunderground v.1.15,2013-03-04 16:23:00,
2013-03-04 11:28:00,38.6,22.5,29.56,WNW,300,16.0,22.0,52,0.00,,,0.00,Wunderground v.1.15,2013-03-04 16:28:00,
2013-03-04 11:33:00,38.6,23.4,29.56,WNW,292,10.0,15.0,54,0.00,,,0.00,Wunderground v.1.15,2013-03-04 16:33:00,
2013-03-04 11:38:00,38.6,23.4,29.56,NW,304,16.0,19.0,54,0.00,,,0.00,Wunderground v.1.15,2013-03-04 16:38:00,
2013-03-04 11:43:00,38.7,23.0,29.56,NW,317,16.0,22.0,53,0.00,,,0.00,Wunderground v.1.15,2013-03-04 16:43:00,
2013-03-04 11:48:00,38.8,23.1,29.56,NW,319,12.0,22.0,53,0.00,,,0.00,Wunderground v.1.15,2013-03-04 16:48:00,
2013-03-04 11:53:00,38.8,24.0,29.56,WNW,302,10.0,19.0,55,0.00,,,0.00,Wunderground v.1.15,2013-03-04 16:53:00,
2013-03-04 11:58:00,38.7,23.0,29.56,WNW,287,9.0,19.0,53,0.00,,,0.00,Wunderground v.1.15,2013-03-04 16:58:00,
2013-03-04 12:03:00,39.0,23.7,29.56,NW,323,14.0,21.0,54,0.00,,,0.00,Wunderground v.1.15,2013-03-04 17:03:00,
2013-03-04 12:08:00,39.2,23.5,29.55,WNW,299,11.0,24.0,53,0.00,,,0.00,Wunderground v.1.15,2013-03-04 17:08:00,
2013-03-04 12:13:00,39.0,23.7,29.55,NNW,327,13.0,21.0,54,0.00,,,0.00,Wunderground v.1.15,2013-03-04 17:13:00,
2013-03-04 12:18:00,39.3,23.6,29.55,NW,321,7.0,22.0,53,0.00,,,0.00,Wunderground v.1.15,2013-03-04 17:18:00,
2013-03-04 12:23:00,39.5,24.2,29.55,WNW,284,9.0,14.0,54,0.00,,,0.00,Wunderground v.1.15,2013-03-04 17:23:00,
2013-03-04 12:28:00,39.9,24.1,29.55,NW,323,7.0,14.0,53,0.00,,,0.00,Wunderground v.1.15,2013-03-04 17:28:00,
2013-03-04 12:33:00,39.9,23.7,29.55,NW,321,13.0,19.0,52,0.00,,,0.00,Wunderground v.1.15,2013-03-04 17:33:00,
2013-03-04 12:38:00,39.7,24.0,29.55,NW,304,8.0,19.0,53,0.00,,,0.00,Wunderground v.1.15,2013-03-04 17:38:00,
2013-03-04 12:43:00,39.8,24.0,29.55,WNW,299,14.0,18.0,53,0.00,,,0.00,Wunderground v.1.15,2013-03-04 17:43:00,
2013-03-04 12:48:00,39.7,24.0,29.55,West,265,7.0,20.0,53,0.00,,,0.00,Wunderground v.1.15,2013-03-04 17:48:00,
2013-03-04 12:53:00,39.7,23.5,29.55,NNW,329,9.0,17.0,52,0.00,,,0.00,Wunderground v.1.15,2013-03-04 17:53:00,
2013-03-04 12:58:00,39.5,23.8,29.55,NW,325,6.0,18.0,53,0.00,,,0.00,Wunderground v.1.15,2013-03-04 17:58:00,
2013-03-04 13:03:00,39.3,23.6,29.55,WNW,302,12.0,16.0,53,0.00,,,0.00,Wunderground v.1.15,2013-03-04 18:03:00,
2013-03-04 13:08:00,39.2,23.5,29.54,NW,323,7.0,16.0,53,0.00,,,0.00,Wunderground v.1.15,2013-03-04 18:08:00,
2013-03-04 13:13:00,39.2,23.5,29.54,WNW,302,11.0,19.0,53,0.00,,,0.00,Wunderground v.1.15,2013-03-04 18:13:00,
2013-03-04 13:18:00,39.1,23.4,29.54,NW,311,6.0,19.0,53,0.00,,,0.00,Wunderground v.1.15,2013-03-04 18:18:00,
2013-03-04 13:23:00,39.3,24.0,29.54,West,267,9.0,16.0,54,0.00,,,0.00,Wunderground v.1.15,2013-03-04 18:23:00,
2013-03-04 13:28:00,39.8,24.0,29.54,NNW,346,6.0,16.0,53,0.00,,,0.00,Wunderground v.1.15,2013-03-04 18:28:00,
2013-03-04 13:29:00,39.8,24.0,29.54,NW,325,12.0,16.0,53,0.00,,,0.00,Wunderground v.1.15,2013-03-04 18:29:00,
2013-03-04 13:30:00,39.9,24.1,29.54,West,275,11.0,12.0,53,0.00,,,0.00,Wunderground v.1.15,2013-03-04 18:30:00,
2013-03-04 13:35:00,40.2,24.4,29.54,WNW,290,4.0,17.0,53,0.00,,,0.00,Wunderground v.1.15,2013-03-04 18:35:00,
2013-03-04 13:40:00,40.3,24.5,29.54,WNW,297,9.0,11.0,53,0.00,,,0.00,Wunderground v.1.15,2013-03-04 18:40:00,
2013-03-04 13:45:00,40.4,24.6,29.54,West,265,8.0,17.0,53,0.00,,,0.00,Wunderground v.1.15,2013-03-04 18:45:00,
2013-03-04 13:50:00,40.3,24.1,29.54,NNW,329,7.0,20.0,52,0.00,,,0.00,Wunderground v.1.15,2013-03-04 18:50:00,
2013-03-04 13:55:00,40.1,24.3,29.54,NW,319,14.0,21.0,53,0.00,,,0.00,Wunderground v.1.15,2013-03-04 18:55:00,
2013-03-04 14:00:00,39.9,24.1,29.54,North,5,7.0,21.0,53,0.00,,,0.00,Wunderground v.1.15,2013-03-04 19:00:00,
2013-03-04 14:05:00,39.8,24.0,29.54,NW,321,17.0,23.0,53,0.00,,,0.00,Wunderground v.1.15,2013-03-04 19:05:00,
2013-03-04 14:10:00,39.7,24.4,29.54,WNW,291,9.0,12.0,54,0.00,,,0.00,Wunderground v.1.15,2013-03-04 19:10:00,
2013-03-04 14:15:00,39.8,24.5,29.54,West,278,2.0,14.0,54,0.00,,,0.00,Wunderground v.1.15,2013-03-04 19:15:00,
2013-03-04 14:20:00,40.0,25.1,29.54,NW,323,9.0,11.0,55,0.00,,,0.00,Wunderground v.1.15,2013-03-04 19:20:00,
2013-03-04 14:25:00,40.2,24.9,29.54,NW,310,6.0,14.0,54,0.00,,,0.00,Wunderground v.1.15,2013-03-04 19:25:00,
2013-03-04 14:30:00,40.2,24.4,29.54,NE,34,3.0,11.0,53,0.00,,,0.00,Wunderground v.1.15,2013-03-04 19:30:00,
2013-03-04 14:35:00,40.0,24.7,29.55,NNW,332,9.0,22.0,54,0.00,,,0.00,Wunderground v.1.15,2013-03-04 19:35:00,
2013-03-04 14:40:00,39.8,24.5,29.55,NW,310,4.0,16.0,54,0.00,,,0.00,Wunderground v.1.15,2013-03-04 19:40:00,
2013-03-04 14:45:00,39.7,24.8,29.55,West,270,5.0,22.0,55,0.00,,,0.00,Wunderground v.1.15,2013-03-04 19:45:00,
2013-03-04 14:50:00,39.6,25.2,29.55,WNW,288,6.0,13.0,56,0.00,,,0.00,Wunderground v.1.15,2013-03-04 19:50:00,
2013-03-04 14:55:00,39.7,25.3,29.55,NW,317,15.0,16.0,56,0.00,,,0.00,Wunderground v.1.15,2013-03-04 19:55:00,
2013-03-04 15:00:00,39.5,25.1,29.55,WNW,291,14.0,19.0,56,0.00,,,0.00,Wunderground v.1.15,2013-03-04 20:00:00,
2013-03-04 15:05:00,39.3,25.3,29.55,NNW,327,7.0,24.0,57,0.00,,,0.00,Wunderground v.1.15,2013-03-04 20:05:00,
2013-03-04 15:10:00,39.2,25.2,29.55,NW,314,11.0,17.0,57,0.00,,,0.00,Wunderground v.1.15,2013-03-04 20:10:00,
2013-03-04 15:15:00,39.0,25.0,29.55,WNW,290,8.0,17.0,57,0.00,,,0.00,Wunderground v.1.15,2013-03-04 20:15:00,
2013-03-04 15:20:00,38.8,25.3,29.55,NW,323,9.0,11.0,58,0.00,,,0.00,Wunderground v.1.15,2013-03-04 20:20:00,
2013-03-04 15:25:00,38.8,25.3,29.55,NW,325,4.0,13.0,58,0.00,,,0.00,Wunderground v.1.15,2013-03-04 20:25:00,
2013-03-04 15:30:00,38.8,24.9,29.55,WNW,286,12.0,22.0,57,0.00,,,0.00,Wunderground v.1.15,2013-03-04 20:30:00,
2013-03-04 15:35:00,38.8,25.3,29.55,NW,323,14.0,22.0,58,0.00,,,0.00,Wunderground v.1.15,2013-03-04 20:35:00,
2013-03-04 15:40:00,38.8,25.3,29.55,WNW,290,9.0,12.0,58,0.00,,,0.00,Wunderground v.1.15,2013-03-04 20:40:00,
2013-03-04 15:46:00,38.7,25.2,29.55,WNW,300,4.0,18.0,58,0.00,,,0.00,Wunderground v.1.15,2013-03-04 20:46:00,
2013-03-04 15:51:00,38.6,25.1,29.55,NW,310,9.0,15.0,58,0.00,,,0.00,Wunderground v.1.15,2013-03-04 20:51:00,
2013-03-04 15:56:00,38.5,25.0,29.55,WNW,295,8.0,15.0,58,0.00,,,0.00,Wunderground v.1.15,2013-03-04 20:56:00,
2013-03-04 16:01:00,38.5,25.4,29.56,NNW,346,4.0,11.0,59,0.00,,,0.00,Wunderground v.1.15,2013-03-04 21:01:00,
2013-03-04 16:06:00,38.6,25.5,29.56,West,279,4.0,13.0,59,0.00,,,0.00,Wunderground v.1.15,2013-03-04 21:06:00,
2013-03-04 16:11:00,38.5,25.0,29.56,NNW,334,6.0,14.0,58,0.00,,,0.00,Wunderground v.1.15,2013-03-04 21:11:00,
2013-03-04 16:16:00,38.4,25.3,29.56,West,279,7.0,15.0,59,0.00,,,0.00,Wunderground v.1.15,2013-03-04 21:16:00,
2013-03-04 16:21:00,38.2,25.1,29.56,West,271,6.0,14.0,59,0.00,,,0.00,Wunderground v.1.15,2013-03-04 21:21:00,
2013-03-04 16:26:00,38.0,24.9,29.57,NW,305,13.0,18.0,59,0.00,,,0.00,Wunderground v.1.15,2013-03-04 21:26:00,
2013-03-04 16:31:00,37.8,25.1,29.57,NNW,331,6.0,17.0,60,0.00,,,0.00,Wunderground v.1.15,2013-03-04 21:31:00,
2013-03-04 16:36:00,37.8,25.1,29.57,WNW,292,7.0,17.0,60,0.00,,,0.00,Wunderground v.1.15,2013-03-04 21:36:00,
2013-03-04 16:41:00,37.7,25.1,29.57,NNW,329,19.0,22.0,60,0.00,,,0.00,Wunderground v.1.15,2013-03-04 21:41:00,
2013-03-04 16:46:00,37.5,24.9,29.57,NW,304,11.0,22.0,60,0.00,,,0.00,Wunderground v.1.15,2013-03-04 21:46:00,
2013-03-04 16:51:00,37.3,25.1,29.58,NW,317,12.0,17.0,61,0.00,,,0.00,Wunderground v.1.15,2013-03-04 21:51:00,
2013-03-04 16:56:00,37.2,25.4,29.58,NW,307,8.0,20.0,62,0.00,,,0.00,Wunderground v.1.15,2013-03-04 21:56:00,
2013-03-04 17:01:00,37.0,25.6,29.58,WNW,292,14.0,18.0,63,0.00,,,0.00,Wunderground v.1.15,2013-03-04 22:01:00,
2013-03-04 17:06:00,36.8,25.8,29.58,West,273,7.0,19.0,64,0.00,,,0.00,Wunderground v.1.15,2013-03-04 22:06:00,
2013-03-04 17:11:00,36.6,25.6,29.58,West,280,3.0,10.0,64,0.00,,,0.00,Wunderground v.1.15,2013-03-04 22:11:00,
2013-03-04 17:16:00,36.5,25.8,29.59,NNW,330,7.0,16.0,65,0.00,,,0.00,Wunderground v.1.15,2013-03-04 22:16:00,
2013-03-04 17:21:00,36.5,25.8,29.59,NNE,17,8.0,17.0,65,0.00,,,0.00,Wunderground v.1.15,2013-03-04 22:21:00,
2013-03-04 17:26:00,36.4,25.4,29.59,West,277,6.0,20.0,64,0.00,,,0.00,Wunderground v.1.15,2013-03-04 22:26:00,
2013-03-04 17:31:00,36.3,25.7,29.59,NNW,329,9.0,14.0,65,0.00,,,0.00,Wunderground v.1.15,2013-03-04 22:31:00,
2013-03-04 17:36:00,36.2,25.9,29.60,NW,313,11.0,18.0,66,0.00,,,0.00,Wunderground v.1.15,2013-03-04 22:36:00,
2013-03-04 17:41:00,36.1,25.5,29.60,WNW,290,13.0,16.0,65,0.00,,,0.00,Wunderground v.1.15,2013-03-04 22:41:00,
2013-03-04 17:46:00,36.0,25.4,29.60,NW,314,12.0,16.0,65,0.00,,,0.00,Wunderground v.1.15,2013-03-04 22:46:00,
2013-03-04 17:51:00,35.9,25.6,29.61,WNW,302,13.0,21.0,66,0.00,,,0.00,Wunderground v.1.15,2013-03-04 22:51:00,
2013-03-04 17:56:00,35.7,25.8,29.61,NW,306,11.0,21.0,67,0.00,,,0.00,Wunderground v.1.15,2013-03-04 22:56:00,
2013-03-04 18:01:00,35.5,25.6,29.61,WNW,296,5.0,18.0,67,0.00,,,0.00,Wunderground v.1.15,2013-03-04 23:01:00,
2013-03-04 18:06:00,35.4,25.9,29.62,West,260,14.0,18.0,68,0.00,,,0.00,Wunderground v.1.15,2013-03-04 23:06:00,
2013-03-04 18:11:00,35.3,26.1,29.62,NNW,333,10.0,26.0,69,0.00,,,0.00,Wunderground v.1.15,2013-03-04 23:11:00,
2013-03-04 18:16:00,35.0,26.2,29.62,NW,317,9.0,26.0,70,0.00,,,0.00,Wunderground v.1.15,2013-03-04 23:16:00,
2013-03-04 18:21:00,34.5,26.4,29.62,NNW,344,12.0,18.0,72,0.00,,,0.00,Wunderground v.1.15,2013-03-04 23:21:00,
2013-03-04 18:26:00,34.4,26.6,29.63,NNW,327,17.0,19.0,73,0.00,,,0.00,Wunderground v.1.15,2013-03-04 23:26:00,
2013-03-04 18:31:00,34.1,26.7,29.63,NW,326,14.0,14.0,74,0.00,,,0.00,Wunderground v.1.15,2013-03-04 23:31:00,
2013-03-04 18:36:00,33.9,26.5,29.63,NW,325,8.0,19.0,74,0.00,,,0.00,Wunderground v.1.15,2013-03-04 23:36:00,
2013-03-04 18:41:00,33.8,26.4,29.63,NW,314,16.0,16.0,74,0.00,,,0.00,Wunderground v.1.15,2013-03-04 23:41:00,
2013-03-04 18:46:00,33.8,28.3,29.63,NNW,338,12.0,22.0,80,0.00,,,0.00,Wunderground v.1.15,2013-03-04 23:46:00,
2013-03-04 18:51:00,33.7,26.6,29.63,NW,306,7.0,11.0,75,0.00,,,0.00,Wunderground v.1.15,2013-03-04 23:51:00,
2013-03-04 18:56:00,33.5,26.7,29.64,WNW,299,11.0,16.0,76,0.00,,,0.00,Wunderground v.1.15,2013-03-04 23:56:00,
2013-03-04 19:01:00,33.3,26.5,29.63,NW,314,8.0,17.0,76,0.00,,,0.00,Wunderground v.1.15,2013-03-05 00:01:00,
2013-03-04 19:06:00,33.2,26.8,29.63,West,269,8.0,17.0,77,0.00,,,0.00,Wunderground v.1.15,2013-03-05 00:06:00,
2013-03-04 19:11:00,33.0,26.6,29.64,NNW,346,8.0,14.0,77,0.00,,,0.00,Wunderground v.1.15,2013-03-05 00:11:00,
2013-03-04 19:16:00,33.0,26.6,29.64,NNW,331,10.0,14.0,77,0.00,,,0.00,Wunderground v.1.15,2013-03-05 00:16:00,
2013-03-04 19:21:00,32.9,26.5,29.64,NW,319,7.0,16.0,77,0.00,,,0.00,Wunderground v.1.15,2013-03-05 00:21:00,
2013-03-04 19:27:00,33.0,26.6,29.64,NW,317,7.0,16.0,77,0.00,,,0.00,Wunderground v.1.15,2013-03-05 00:27:00,
2013-03-04 19:32:00,33.0,26.6,29.64,NW,304,6.0,14.0,77,0.00,,,0.00,Wunderground v.1.15,2013-03-05 00:32:00,
2013-03-04 19:37:00,33.1,26.4,29.64,NNW,335,6.0,14.0,76,0.00,,,0.00,Wunderground v.1.15,2013-03-05 00:37:00,
2013-03-04 19:42:00,33.2,26.5,29.64,NW,326,5.0,10.0,76,0.00,,,0.00,Wunderground v.1.15,2013-03-05 00:42:00,
2013-03-04 19:47:00,33.2,26.5,29.64,NNW,344,8.0,13.0,76,0.00,,,0.00,Wunderground v.1.15,2013-03-05 00:47:00,
2013-03-04 19:52:00,33.3,26.2,29.64,WNW,302,6.0,13.0,75,0.00,,,0.00,Wunderground v.1.15,2013-03-05 00:52:00,
2013-03-04 19:57:00,33.3,26.2,29.64,West,272,8.0,14.0,75,0.00,,,0.00,Wunderground v.1.15,2013-03-05 00:57:00,
2013-03-04 20:02:00,33.4,26.0,29.65,NW,307,11.0,16.0,74,0.00,,,0.00,Wunderground v.1.15,2013-03-05 01:02:00,
2013-03-04 20:07:00,33.4,25.7,29.65,WNW,293,4.0,16.0,73,0.00,,,0.00,Wunderground v.1.15,2013-03-05 01:07:00,
2013-03-04 20:12:00,33.4,25.7,29.65,WNW,303,5.0,12.0,73,0.00,,,0.00,Wunderground v.1.15,2013-03-05 01:12:00,
2013-03-04 20:17:00,33.4,26.0,29.65,NNW,328,9.0,12.0,74,0.00,,,0.00,Wunderground v.1.15,2013-03-05 01:17:00,
2013-03-04 20:22:00,33.4,25.7,29.65,NW,304,6.0,17.0,73,0.00,,,0.00,Wunderground v.1.15,2013-03-05 01:22:00,
2013-03-04 20:27:00,33.5,25.8,29.65,WNW,296,9.0,17.0,73,0.00,,,0.00,Wunderground v.1.15,2013-03-05 01:27:00,
2013-03-04 20:32:00,33.6,25.5,29.65,NNW,331,9.0,16.0,72,0.00,,,0.00,Wunderground v.1.15,2013-03-05 01:32:00,
2013-03-04 20:37:00,33.7,25.3,29.65,NW,309,12.0,23.0,71,0.00,,,0.00,Wunderground v.1.15,2013-03-05 01:37:00,
2013-03-04 20:42:00,33.7,25.0,29.65,NNW,330,9.0,18.0,70,0.00,,,0.00,Wunderground v.1.15,2013-03-05 01:42:00,
2013-03-04 20:47:00,33.8,24.7,29.65,NNW,327,4.0,18.0,69,0.00,,,0.00,Wunderground v.1.15,2013-03-05 01:47:00,
2013-03-04 20:52:00,33.9,24.8,29.65,NNW,348,13.0,23.0,69,0.00,,,0.00,Wunderground v.1.15,2013-03-05 01:52:00,
2013-03-04 20:57:00,33.9,24.8,29.66,NNW,333,22.0,23.0,69,0.00,,,0.00,Wunderground v.1.15,2013-03-05 01:57:00,
2013-03-04 21:02:00,33.9,24.4,29.66,NNW,334,7.0,20.0,68,0.00,,,0.00,Wunderground v.1.15,2013-03-05 02:02:00,
2013-03-04 21:07:00,33.9,24.1,29.66,North,11,13.0,25.0,67,0.00,,,0.00,Wunderground v.1.15,2013-03-05 02:07:00,
2013-03-04 21:12:00,33.9,24.1,29.66,NNW,330,15.0,21.0,67,0.00,,,0.00,Wunderground v.1.15,2013-03-05 02:12:00,
2013-03-04 21:17:00,33.8,24.0,29.67,WNW,290,7.0,22.0,67,0.00,,,0.00,Wunderground v.1.15,2013-03-05 02:17:00,
2013-03-04 21:22:00,33.8,24.0,29.67,NW,317,12.0,13.0,67,0.00,,,0.00,Wunderground v.1.15,2013-03-05 02:22:00,
2013-03-04 21:27:00,33.8,23.6,29.66,WNW,296,6.0,19.0,66,0.00,,,0.00,Wunderground v.1.15,2013-03-05 02:27:00,
2013-03-04 21:32:00,33.7,23.5,29.66,NNW,336,16.0,16.0,66,0.00,,,0.00,Wunderground v.1.15,2013-03-05 02:32:00,
2013-03-04 21:37:00,33.6,23.1,29.67,NW,304,14.0,21.0,65,0.00,,,0.00,Wunderground v.1.15,2013-03-05 02:37:00,
2013-03-04 21:42:00,33.5,23.0,29.67,North,360,9.0,16.0,65,0.00,,,0.00,Wunderground v.1.15,2013-03-05 02:42:00,
2013-03-04 21:47:00,33.5,23.0,29.67,NW,316,6.0,19.0,65,0.00,,,0.00,Wunderground v.1.15,2013-03-05 02:47:00,
2013-03-04 21:52:00,33.5,23.0,29.67,NNW,333,8.0,29.0,65,0.00,,,0.00,Wunderground v.1.15,2013-03-05 02:52:00,
2013-03-04 21:57:00,33.5,23.0,29.67,NW,317,21.0,29.0,65,0.00,,,0.00,Wunderground v.1.15,2013-03-05 02:57:00,
2013-03-04 22:02:00,33.5,23.0,29.67,NW,323,9.0,23.0,65,0.00,,,0.00,Wunderground v.1.15,2013-03-05 03:02:00,
2013-03-04 22:07:00,33.4,22.9,29.67,North,355,14.0,25.0,65,0.00,,,0.00,Wunderground v.1.15,2013-03-05 03:07:00,
2013-03-04 22:12:00,33.4,22.9,29.67,NNW,346,13.0,21.0,65,0.00,,,0.00,Wunderground v.1.15,2013-03-05 03:12:00,
2013-03-04 22:17:00,33.4,22.9,29.68,NW,322,17.0,23.0,65,0.00,,,0.00,Wunderground v.1.15,2013-03-05 03:17:00,
2013-03-04 22:22:00,33.3,22.8,29.67,North,351,15.0,16.0,65,0.00,,,0.00,Wunderground v.1.15,2013-03-05 03:22:00,
2013-03-04 22:27:00,33.3,22.8,29.68,NW,323,9.0,17.0,65,0.00,,,0.00,Wunderground v.1.15,2013-03-05 03:27:00,
2013-03-04 22:32:00,33.3,22.8,29.68,NW,310,8.0,17.0,65,0.00,,,0.00,Wunderground v.1.15,2013-03-05 03:32:00,
2013-03-04 22:37:00,33.2,22.7,29.68,NNW,333,8.0,23.0,65,0.00,,,0.00,Wunderground v.1.15,2013-03-05 03:37:00,
2013-03-04 22:42:00,33.2,22.7,29.68,NW,325,12.0,22.0,65,0.00,,,0.00,Wunderground v.1.15,2013-03-05 03:42:00,
2013-03-04 22:47:00,33.2,22.7,29.68,North,355,6.0,22.0,65,0.00,,,0.00,Wunderground v.1.15,2013-03-05 03:47:00,
2013-03-04 22:52:00,33.2,22.7,29.68,NW,313,11.0,17.0,65,0.00,,,0.00,Wunderground v.1.15,2013-03-05 03:52:00,
2013-03-04 22:57:00,33.2,22.7,29.68,NW,323,8.0,19.0,65,0.00,,,0.00,Wunderground v.1.15,2013-03-05 03:57:00,
2013-03-04 23:02:00,33.1,22.6,29.68,NW,308,9.0,20.0,65,0.00,,,0.00,Wunderground v.1.15,2013-03-05 04:02:00,
2013-03-04 23:08:00,33.2,22.7,29.68,NNW,332,7.0,20.0,65,0.00,,,0.00,Wunderground v.1.15,2013-03-05 04:08:00,
2013-03-04 23:13:00,33.1,22.6,29.69,NW,307,12.0,17.0,65,0.00,,,0.00,Wunderground v.1.15,2013-03-05 04:13:00,
2013-03-04 23:18:00,33.0,22.5,29.69,NW,307,6.0,17.0,65,0.00,,,0.00,Wunderground v.1.15,2013-03-05 04:18:00,
2013-03-04 23:23:00,33.0,22.5,29.69,North,355,10.0,19.0,65,0.00,,,0.00,Wunderground v.1.15,2013-03-05 04:23:00,
2013-03-04 23:28:00,32.9,22.4,29.69,West,271,5.0,19.0,65,0.00,,,0.00,Wunderground v.1.15,2013-03-05 04:28:00,
2013-03-04 23:33:00,32.8,22.3,29.69,NNW,348,12.0,18.0,65,0.00,,,0.00,Wunderground v.1.15,2013-03-05 04:33:00,
2013-03-04 23:38:00,32.6,22.1,29.69,WNW,300,10.0,20.0,65,0.00,,,0.00,Wunderground v.1.15,2013-03-05 04:38:00,
2013-03-04 23:43:00,32.5,22.4,29.69,NW,306,16.0,19.0,66,0.00,,,0.00,Wunderground v.1.15,2013-03-05 04:43:00,
2013-03-04 23:48:00,32.5,22.0,29.70,NNW,347,5.0,19.0,65,0.00,,,0.00,Wunderground v.1.15,2013-03-05 04:48:00,
2013-03-04 23:53:00,32.5,22.0,29.70,NNW,339,8.0,21.0,65,0.00,,,0.00,Wunderground v.1.15,2013-03-05 04:53:00,
2013-03-04 23:58:00,32.6,22.5,29.70,North,355,9.0,21.0,66,0.00,,,0.00,Wunderground v.1.15,2013-03-05 04:58:00,